Stations météo

réclame
Mon MeteoGroup
Javea, Espagne (8370): Température de l'air & dewpoint: 17.04.2018 03:00:00 - 23.04.2018 03:00:00 (CEST)Javea, Espagne (8370): Vitesse du vent & gusts: 17.04.2018 03:00:00 - 23.04.2018 03:00:00 (CEST)Javea, Espagne (8370): Direction du vent: 17.04.2018 03:00:00 - 23.04.2018 03:00:00 (CEST)Javea, Espagne (8370): reduced air pressure: 17.04.2018 03:00:00 - 23.04.2018 03:00:00 (CEST)Javea, Espagne (8370): visibility: 17.04.2018 03:00:00 - 23.04.2018 03:00:00 (CEST)Javea, Espagne (8370): Ensoleillement: 17.04.2018 03:00:00 - 23.04.2018 03:00:00 (CEST)Javea, Espagne (8370): Quantités de précipitations: 17.04.2018 03:00:00 - 23.04.2018 03:00:00 (CEST)
Date & Time tt [°C] td [°C] ff [km/h] ff [knt] fx [km/h] fx [knt] dd ppp [hPa] vv [km] sd [min] rr [mm]
23.04.2018 03:00:00 14,6 11,6 3 2 13 7 S 1018,7 20 0 0,0
23.04.2018 02:00:00 14,2 11,3 4 2 10 6 W 1019,0 19 0 -
23.04.2018 01:00:00 14,2 11,6 5 3 11 6 SSW 1019,0 20 0 0,0
23.04.2018 00:00:00 14,5 11,2 3 2 10 5 SSW 1019,2 19 0 0,0
22.04.2018 23:00:00 15,9 11,2 5 3 20 11 SSW 1019,1 20 0 0,0
22.04.2018 22:00:00 17,0 9,2 4 2 14 8 SSW 1018,6 20 0 0,0
22.04.2018 21:00:00 18,5 9,0 10 5 21 12 NNE 1017,8 20 0 0,0
22.04.2018 20:00:00 19,6 9,2 8 4 15 8 NE 1017,3 20 51 -
22.04.2018 19:00:00 21,0 8,3 8 5 19 10 ENE 1017,4 20 60 0,0
22.04.2018 18:00:00 21,5 10,6 10 6 20 11 E 1017,4 20 60 0,0
22.04.2018 17:00:00 22,6 9,0 9 5 23 12 ENE 1017,6 19 60 0,0
22.04.2018 16:00:00 23,0 9,8 12 6 27 15 NNE 1018,1 20 60 0,0
22.04.2018 15:00:00 22,8 10,3 13 7 29 15 NNE 1018,6 20 60 0,0
22.04.2018 14:00:00 22,5 8,5 14 8 27 14 NNE 1018,8 20 60 -
22.04.2018 13:00:00 22,2 8,3 15 8 29 16 N 1019,0 20 60 0,0
22.04.2018 12:00:00 22,0 8,8 16 9 32 18 N 1019,1 20 60 0,0
22.04.2018 11:00:00 20,1 9,0 19 10 32 17 N 1018,8 20 60 0,0
22.04.2018 10:00:00 18,2 9,3 13 7 21 12 NNW 1018,8 20 60 0,0
22.04.2018 09:00:00 14,7 12,2 4 2 12 6 SW 1019,0 20 9 0,0
22.04.2018 08:00:00 11,7 10,2 4 2 9 5 SSW 1018,4 14 0 -
22.04.2018 07:00:00 11,7 9,8 4 2 10 5 S 1018,2 10 0 0,0
22.04.2018 06:00:00 12,8 11,0 4 2 11 6 WSW 1018,3 11 0 0,0
22.04.2018 05:00:00 13,2 11,8 7 4 13 7 SW 1018,8 8 0 0,0
22.04.2018 04:00:00 14,0 12,8 8 5 20 11 W 1019,2 10 0 0,0
22.04.2018 03:00:00 13,6 12,6 8 5 14 7 WSW 1019,5 6 0 0,0
22.04.2018 02:00:00 12,4 11,0 3 2 9 5 SSW 1020,2 4,0 0 -
22.04.2018 01:00:00 12,5 10,8 6 3 10 5 WSW 1020,3 7 0 0,0
22.04.2018 00:00:00 12,4 10,3 3 1 6 3 SSW 1020,5 11 0 0,0
21.04.2018 23:00:00 12,7 9,6 2 1 5 3 SE 1020,4 15 0 0,0
21.04.2018 22:00:00 14,1 10,2 0 0 6 4 N 1020,1 19 0 0,0
21.04.2018 21:00:00 16,4 10,5 5 3 15 8 SW 1019,8 20 0 0,0
21.04.2018 20:00:00 18,2 8,8 9 5 18 10 N 1019,5 20 0 -
21.04.2018 19:00:00 18,8 9,8 10 5 16 9 NNE 1019,8 20 20 0,0
21.04.2018 18:00:00 19,7 9,6 9 5 23 12 NNE 1020,2 20 2 0,0
21.04.2018 17:00:00 19,6 9,8 15 8 24 13 N 1020,4 20 19 0,0
21.04.2018 16:00:00 19,6 11,1 9 5 23 13 NNE 1020,7 20 0 0,0
21.04.2018 15:00:00 19,2 10,8 18 10 31 17 NNW 1021,0 20 3 0,0
21.04.2018 14:00:00 19,5 11,6 14 8 29 16 N 1020,9 18 1 -
21.04.2018 13:00:00 19,4 11,4 17 9 30 16 NW 1021,5 18 12 0,0
21.04.2018 12:00:00 19,5 11,8 15 8 27 14 NNW 1021,9 20 53 0,0
21.04.2018 11:00:00 18,9 11,7 16 9 29 16 NW 1021,4 20 60 0,0
21.04.2018 10:00:00 18,0 11,6 16 9 27 15 NNW 1021,4 20 60 0,0
21.04.2018 09:00:00 15,9 12,1 11 6 27 15 W 1021,4 17 20 0,0
21.04.2018 08:00:00 14,5 11,8 13 7 27 15 NW 1020,7 16 0 -
21.04.2018 07:00:00 14,0 11,1 6 3 26 14 W 1020,7 15 0 0,0
21.04.2018 06:00:00 14,1 12,0 18 10 30 16 NW 1020,5 16 0 0,0
21.04.2018 05:00:00 13,6 11,1 5 3 26 14 SW 1021,0 10 0 0,0
21.04.2018 04:00:00 13,8 12,0 9 5 22 12 W 1021,4 17 0 0,0
21.04.2018 03:00:00 14,4 12,1 11 6 26 14 W 1021,3 14 0 0,0
21.04.2018 02:00:00 13,7 12,2 8 4 20 11 W 1021,6 11 0 -
21.04.2018 01:00:00 12,7 11,2 5 3 10 5 WSW 1021,8 6 0 0,0
21.04.2018 00:00:00 13,2 11,2 4 2 8 4 SSW 1022,2 10 0 0,0
20.04.2018 23:00:00 14,0 11,6 5 3 15 8 SW 1022,3 17 0 0,0
20.04.2018 22:00:00 14,8 11,2 4 2 26 14 SW 1022,0 18 0 0,0
20.04.2018 21:00:00 15,6 11,8 10 6 26 14 N 1021,7 20 8 0,0
20.04.2018 20:00:00 17,0 10,9 9 5 25 14 NNE 1021,7 20 60 -
20.04.2018 19:00:00 18,2 12,0 10 5 28 15 N 1021,6 20 60 0,0
20.04.2018 18:00:00 18,8 12,1 16 8 28 15 N 1021,6 20 60 0,0
20.04.2018 17:00:00 19,7 11,4 14 8 27 15 N 1022,3 20 60 0,0
20.04.2018 16:00:00 19,1 12,3 12 7 24 13 N 1022,7 19 18 0,0
20.04.2018 15:00:00 17,9 11,9 13 7 29 16 N 1023,2 15 14 0,0
20.04.2018 14:00:00 18,4 12,4 18 10 29 16 NNE 1023,2 20 30 -
20.04.2018 13:00:00 18,4 12,4 18 10 32 17 N 1023,2 15 56 0,0
20.04.2018 12:00:00 18,7 12,6 16 9 30 16 N 1023,3 19 45 0,0
20.04.2018 11:00:00 16,6 12,3 12 6 23 13 N 1023,1 17 4 0,0
20.04.2018 10:00:00 15,7 12,2 15 8 23 12 N 1022,9 15 0 0,0
20.04.2018 09:00:00 15,1 12,6 13 7 23 13 N 1022,8 15 0 0,0
20.04.2018 08:00:00 15,0 13,1 14 7 21 12 N 1022,4 16 0 -
20.04.2018 07:00:00 14,6 12,4 10 5 22 12 N 1022,1 15 0 0,0
20.04.2018 06:00:00 14,4 12,2 10 5 26 14 NNW 1022,3 14 0 0,0
20.04.2018 05:00:00 14,4 12,2 15 8 29 16 NNW 1022,4 15 0 0,0
20.04.2018 04:00:00 14,5 12,0 10 5 23 13 N 1022,9 16 0 0,0
20.04.2018 03:00:00 14,8 12,1 13 7 29 16 NNW 1023,3 14 0 0,0
20.04.2018 02:00:00 14,2 11,3 4 2 18 10 W 1023,6 16 0 -
20.04.2018 01:00:00 14,7 11,9 3 2 18 10 S 1024,1 16 0 0,0
20.04.2018 00:00:00 15,1 12,0 11 6 18 10 N 1024,3 17 0 0,0
19.04.2018 23:00:00 15,5 12,1 9 5 19 10 NNW 1024,4 17 0 0,0
19.04.2018 22:00:00 15,5 12,1 7 4 15 8 N 1024,1 20 0 0,0
19.04.2018 21:00:00 15,5 11,9 3 2 21 11 NNE 1023,7 19 2 0,0
19.04.2018 20:00:00 16,1 11,9 11 6 24 13 N 1023,5 20 60 -
19.04.2018 19:00:00 16,8 11,6 17 9 28 15 NNE 1023,6 20 60 0,0
19.04.2018 18:00:00 17,9 11,4 16 9 31 17 N 1023,7 20 56 0,0
19.04.2018 17:00:00 18,1 11,7 16 9 30 16 N 1024,1 19 60 0,0
19.04.2018 16:00:00 19,0 11,8 21 12 35 19 N 1024,2 20 60 0,0
19.04.2018 15:00:00 20,2 11,9 20 11 33 18 N 1024,3 20 60 0,0
19.04.2018 14:00:00 19,9 11,9 19 11 32 17 NNW 1024,7 20 60 -
19.04.2018 13:00:00 19,9 11,9 16 9 29 16 N 1024,8 17 60 0,0
19.04.2018 12:00:00 19,4 12,2 16 9 31 17 N 1025,0 20 60 0,0
19.04.2018 11:00:00 18,5 12,0 16 9 31 17 N 1024,9 20 60 0,0
19.04.2018 10:00:00 17,4 11,7 14 8 31 17 NNW 1024,7 20 60 0,0
19.04.2018 09:00:00 16,3 11,0 9 5 25 13 NW 1024,4 20 19 0,0
19.04.2018 08:00:00 14,2 10,8 3 2 16 8 WSW 1024,2 19 0 -
19.04.2018 07:00:00 14,0 11,1 6 4 20 11 WNW 1023,8 19 0 0,0
19.04.2018 06:00:00 14,7 12,5 11 6 24 13 NNW 1024,0 11 0 0,0
19.04.2018 05:00:00 14,9 12,7 9 5 23 12 NW 1024,0 14 0 0,0
19.04.2018 04:00:00 13,9 10,3 6 4 19 10 SSW 1024,3 17 0 0,0
19.04.2018 03:00:00 11,5 8,5 5 3 9 5 WNW 1024,6 20 0 0,0
19.04.2018 02:00:00 13,4 8,4 2 1 19 10 SW 1025,1 20 0 -
19.04.2018 01:00:00 14,9 11,4 6 4 19 11 NW 1025,3 20 0 0,0
19.04.2018 00:00:00 12,7 6,5 5 3 9 5 WSW 1025,5 20 0 0,0
18.04.2018 23:00:00 14,8 6,8 3 2 13 7 SSW 1025,4 20 0 0,0
18.04.2018 22:00:00 15,9 6,4 3 2 10 5 S 1025,1 20 0 0,0
18.04.2018 21:00:00 18,6 3,6 6 3 11 6 N 1024,6 20 13 0,0
18.04.2018 20:00:00 20,7 3,0 8 4 13 7 NE 1024,5 20 60 -
18.04.2018 19:00:00 22,2 4,6 7 4 15 8 E 1024,4 20 60 0,0
18.04.2018 18:00:00 22,4 5,3 7 4 16 9 E 1024,6 20 60 0,0
18.04.2018 17:00:00 21,3 9,2 10 5 16 9 E 1024,7 20 60 0,0
18.04.2018 16:00:00 21,9 11,3 6 4 23 12 ESE 1025,1 20 60 0,0
18.04.2018 15:00:00 20,8 9,0 13 7 21 12 E 1025,4 20 60 0,0
18.04.2018 14:00:00 23,0 9,0 10 6 20 11 SE 1025,6 20 60 -
18.04.2018 13:00:00 24,3 7,4 9 5 18 10 N 1025,9 20 60 0,0
18.04.2018 12:00:00 22,9 8,3 7 4 13 7 ESE 1026,0 20 60 0,0
18.04.2018 11:00:00 21,4 9,3 4 2 9 5 NE 1025,9 20 60 0,0
18.04.2018 10:00:00 18,3 9,7 3 2 7 4 SSW 1025,9 20 52 0,0
18.04.2018 09:00:00 13,2 9,7 5 3 10 5 WSW 1025,7 20 22 0,0
18.04.2018 08:00:00 8,6 6,8 8 4 10 6 WSW 1025,5 20 1 -
18.04.2018 07:00:00 8,2 6,4 9 5 11 6 SW 1025,1 20 0 0,0
18.04.2018 06:00:00 8,7 6,8 6 3 11 6 WSW 1025,1 20 0 0,0
18.04.2018 05:00:00 9,1 6,5 6 3 9 5 SW 1025,3 20 0 0,0
18.04.2018 04:00:00 11,4 7,3 7 4 14 8 WSW 1025,1 20 0 0,0
18.04.2018 03:00:00 12,1 7,1 9 5 14 7 WSW 1025,2 20 0 0,0
18.04.2018 02:00:00 13,5 8,4 7 4 11 6 W 1025,4 20 0 -
18.04.2018 01:00:00 13,8 8,8 5 3 14 8 W 1025,4 20 0 0,0
18.04.2018 00:00:00 14,7 9,0 9 5 16 9 WSW 1025,2 20 0 0,0
17.04.2018 23:00:00 14,6 8,8 6 3 16 8 SW 1025,3 20 0 0,0
17.04.2018 22:00:00 15,7 8,9 10 6 16 8 SW 1024,7 20 0 0,0
17.04.2018 21:00:00 16,9 9,0 8 4 14 8 W 1024,0 20 11 0,0
17.04.2018 20:00:00 19,5 7,8 6 3 17 9 SW 1023,7 20 60 -
17.04.2018 19:00:00 21,8 7,3 10 5 22 12 SSW 1023,7 20 60 0,0
17.04.2018 18:00:00 22,9 7,4 8 5 18 10 SSE 1023,6 20 60 0,0
17.04.2018 17:00:00 23,1 8,0 9 5 19 10 SE 1023,9 20 60 0,0
17.04.2018 16:00:00 23,1 8,4 8 5 18 10 S 1024,1 20 60 0,0
17.04.2018 15:00:00 21,2 5,9 10 5 18 10 ENE 1024,4 20 60 0,0
17.04.2018 14:00:00 20,6 6,5 8 5 18 10 ENE 1024,7 20 60 -
17.04.2018 13:00:00 20,4 7,4 8 5 16 8 ENE 1025,0 20 60 0,0
17.04.2018 12:00:00 20,1 8,8 7 4 16 9 E 1025,1 20 60 0,0
17.04.2018 11:00:00 18,7 10,0 6 3 11 6 ENE 1024,8 20 60 0,0
17.04.2018 10:00:00 17,4 10,5 5 3 10 5 ENE 1024,3 20 52 0,0
17.04.2018 09:00:00 12,8 9,4 8 5 13 7 SW 1023,7 20 23 0,0
17.04.2018 08:00:00 8,8 7,1 8 4 13 7 WSW 1023,2 16 2 -
17.04.2018 07:00:00 8,7 6,8 9 5 14 8 SW 1022,8 20 0 0,0
17.04.2018 06:00:00 8,8 7,1 8 4 10 6 WSW 1022,1 20 0 0,0
17.04.2018 05:00:00 9,2 7,1 9 5 12 7 SW 1022,1 20 0 0,0
17.04.2018 04:00:00 9,4 7,1 7 4 12 7 WSW 1022,0 20 0 0,0
17.04.2018 03:00:00 10,4 7,7 9 5 13 7 WSW 1022,0 20 0 0,0

tt = Température de l'air
td = dewpoint
ff = Vitesse du vent
fx = gusts
dd = Direction du vent
ppp = reduced air pressure
vv = visibility
sd = Ensoleillement
rr = Quantités de précipitations

stations d'obs. à proximité